Voltar ao catálogo

GLOBAL-17

AtivoComunicaçõesVLEO
NORAD 49949·PAYLOAD·🇺🇸 United States

Lançado Dec 9, 2021 de Rocket Lab Launch Complex 1

Loading…

Próximas Passagens (próximas 24 horas)

TLE

AtualizadoSource: Space-Track

Época: Sep 14, 2026, 00:08 UTC

1 49949U 21120A   26257.00598692  .00032309  00000-0  43753-3 0  9994
2 49949  41.9932 238.2211 0016336 165.3159 194.8164 15.56885036268728

Acompanhe GLOBAL-17 em tempo real com AllMySat

Download on the App Store